| time (UTC) | temp F | wind direction | speed MPH | gust MPH | rain 1hr in | rain 24hr in | rain mn in | humidity % | barometer mb |
| 20260906191534 | 50 | 329 | 1.0 | 5.0 | 0.01 | 0.47 | 0.35 | 97 | 1018.7 |
| 20260906190033 | 50 | 277 | 2.0 | 6.0 | 0.00 | 0.46 | 0.35 | 96 | 1018.7 |
| 20260906183031 | 50 | 357 | 3.0 | 5.0 | 0.02 | 0.46 | 0.35 | 96 | 1018.6 |
| 20260906181651 | 50 | 350 | 3.0 | 7.0 | 0.02 | 0.46 | 0.35 | 96 | 1018.6 |
| 20260906180030 | 50 | 326 | 4.0 | 8.0 | 0.03 | 0.46 | 0.34 | 96 | 1018.6 |
| 20260906174530 | 50 | 294 | 2.0 | 5.0 | 0.03 | 0.45 | 0.33 | 96 | 1018.5 |
| 20260906173106 | 50 | 275 | 1.0 | 5.0 | 0.04 | 0.44 | 0.33 | 96 | 1018.4 |
| 20260906164537 | 50 | 291 | 1.0 | 6.0 | 0.04 | 0.42 | 0.28 | 96 | 1018.3 |
| 20260906163030 | 50 | 261 | 0.0 | 4.0 | 0.03 | 0.40 | 0.28 | 96 | 1018.3 |
| 20260906160034 | 50 | 225 | 0.0 | 0.0 | 0.02 | 0.38 | 0.27 | 96 | 1018.2 |
| 20260906154608 | 50 | 206 | 0.0 | 2.0 | 0.04 | 0.38 | 0.26 | 96 | 1018.1 |
| 20260906151533 | 49 | 202 | 0.0 | 0.0 | 0.05 | 0.37 | 0.25 | 95 | 1018.0 |
| 20260906150030 | 49 | 202 | 0.0 | 1.0 | 0.05 | 0.36 | 0.23 | 95 | 1017.7 |
| 20260906144536 | 49 | 167 | 0.0 | 2.0 | 0.05 | 0.34 | 0.22 | 95 | 1017.6 |
| 20260906141530 | 49 | 157 | 2.0 | 4.0 | 0.06 | 0.32 | 0.20 | 95 | 1017.3 |
| 20260906140033 | 49 | 163 | 1.0 | 3.0 | 0.06 | 0.31 | 0.18 | 95 | 1017.1 |
| 20260906134642 | 49 | 180 | 0.0 | 2.0 | 0.06 | 0.28 | 0.17 | 95 | 1017.0 |
| 20260906133035 | 49 | 162 | 3.0 | 6.0 | 0.06 | 0.28 | 0.15 | 95 | 1017.0 |
| 20260906130036 | 49 | 180 | 0.0 | 2.0 | 0.05 | 0.25 | 0.12 | 95 | 1017.0 |
| 20260906124537 | 49 | 180 | 0.0 | 0.0 | 0.04 | 0.23 | 0.11 | 95 | 1017.1 |
| 20260906123106 | 49 | 165 | 2.0 | 5.0 | 0.03 | 0.22 | 0.10 | 94 | 1017.1 |
| 20260906121529 | 49 | 149 | 3.0 | 5.0 | 0.02 | 0.21 | 0.09 | 94 | 1017.2 |
| 20260906114536 | 49 | 174 | 3.0 | 5.0 | 0.00 | 0.19 | 0.08 | 94 | 1017.3 |
| 20260906113037 | 49 | 164 | 2.0 | 4.0 | 0.00 | 0.19 | 0.08 | 94 | 1017.4 |
| 20260906111535 | 49 | 152 | 2.0 | 5.0 | 0.01 | 0.19 | 0.08 | 94 | 1017.4 |
| 20260906110107 | 49 | 140 | 3.0 | 5.0 | 0.01 | 0.19 | 0.08 | 94 | 1017.4 |
| 20260906104535 | 49 | 152 | 3.0 | 6.0 | 0.02 | 0.19 | 0.08 | 94 | 1017.6 |
| 20260906103034 | 50 | 190 | 4.0 | 7.0 | 0.03 | 0.19 | 0.07 | 94 | 1017.9 |
| 20260906100030 | 50 | 115 | 1.0 | 4.0 | 0.04 | 0.18 | 0.06 | 93 | 1018.0 |
| 20260906094605 | 50 | 165 | 2.0 | 11.0 | 0.04 | 0.17 | 0.05 | 93 | 1018.0 |
| 20260906091532 | 51 | 150 | 4.0 | 10.0 | 0.04 | 0.15 | 0.03 | 93 | 1018.1 |
| 20260906090033 | 51 | 157 | 2.0 | 7.0 | 0.03 | 0.14 | 0.02 | 93 | 1018.1 |
| 20260906084606 | 51 | 157 | 5.0 | 10.0 | 0.02 | 0.13 | 0.01 | 93 | 1018.1 |
| 20260906083104 | 50 | 158 | 4.0 | 11.0 | 0.01 | 0.12 | 0.00 | 93 | 1018.2 |
| 20260906080038 | 50 | 151 | 4.0 | 9.0 | 0.00 | 0.11 | 0.00 | 93 | 1017.9 |
| 20260906073032 | 50 | 152 | 3.0 | 7.0 | 0.00 | 0.11 | 0.00 | 93 | 1017.9 |
| 20260906071533 | 50 | 155 | 4.0 | 6.0 | 0.00 | 0.11 | 0.00 | 93 | 1018.2 |
| 20260906064531 | 49 | 153 | 4.0 | 9.0 | 0.00 | 0.11 | 0.11 | 93 | 1018.3 |
| 20260906063034 | 49 | 162 | 5.0 | 9.0 | 0.00 | 0.11 | 0.11 | 93 | 1018.3 |
| 20260906061534 | 49 | 153 | 5.0 | 8.0 | 0.00 | 0.11 | 0.11 | 93 | 1018.4 |
| 20260906060142 | 49 | 154 | 4.0 | 6.0 | 0.00 | 0.12 | 0.11 | 93 | 1018.5 |
| 20260906054532 | 49 | 176 | 5.0 | 7.0 | 0.00 | 0.13 | 0.11 | 93 | 1018.5 |
| 20260906053032 | 49 | 154 | 4.0 | 7.0 | 0.00 | 0.13 | 0.11 | 92 | 1018.6 |
| 20260906051535 | 49 | 155 | 4.0 | 6.0 | 0.00 | 0.13 | 0.11 | 92 | 1018.7 |
| 20260906050033 | 50 | 142 | 5.0 | 10.0 | 0.00 | 0.13 | 0.11 | 92 | 1018.7 |
| 20260906044538 | 50 | 138 | 4.0 | 8.0 | 0.00 | 0.13 | 0.11 | 92 | 1018.8 |
| 20260906043153 | 50 | 141 | 4.0 | 7.0 | 0.00 | 0.13 | 0.11 | 92 | 1018.9 |
| 20260906043144 | 50 | 144 | 4.0 | 8.0 | 0.00 | 0.13 | 0.11 | 92 | 1018.9 |
| 20260906040034 | 50 | 156 | 5.0 | 8.0 | 0.00 | 0.13 | 0.11 | 92 | 1018.8 |
| 20260906034533 | 50 | 176 | 4.0 | 7.0 | 0.00 | 0.13 | 0.11 | 91 | 1018.7 |
| 20260906033045 | 50 | 175 | 4.0 | 7.0 | 0.00 | 0.13 | 0.11 | 91 | 1018.6 |
| 20260906031535 | 51 | 160 | 4.0 | 6.0 | 0.00 | 0.13 | 0.11 | 90 | 1018.4 |
| 20260906024532 | 52 | 152 | 4.0 | 6.0 | 0.00 | 0.13 | 0.11 | 90 | 1018.3 |
| 20260906023035 | 53 | 150 | 3.0 | 5.0 | 0.00 | 0.13 | 0.11 | 89 | 1018.4 |
| 20260906020034 | 54 | 157 | 0.0 | 1.0 | 0.00 | 0.13 | 0.11 | 87 | 1018.4 |
| 20260906014534 | 54 | 157 | 0.0 | 1.0 | 0.00 | 0.13 | 0.11 | 86 | 1018.4 |
| 20260906013030 | 55 | 157 | 0.0 | 1.0 | 0.00 | 0.13 | 0.11 | 84 | 1018.4 |
| 20260906011643 | 56 | 188 | 0.0 | 3.0 | 0.00 | 0.13 | 0.11 | 84 | 1018.6 |
| 20260906010034 | 56 | 202 | 0.0 | 1.0 | 0.00 | 0.13 | 0.11 | 84 | 1018.8 |
| 20260906004529 | 57 | 202 | 0.0 | 1.0 | 0.00 | 0.13 | 0.11 | 84 | 1018.8 |
| 20260906003106 | 58 | 238 | 2.0 | 5.0 | 0.00 | 0.13 | 0.11 | 84 | 1018.8 |
| 20260906001531 | 58 | 217 | 3.0 | 7.0 | 0.07 | 0.13 | 0.11 | 85 | 1018.8 |
| 20260906000036 | 57 | 171 | 1.0 | 4.0 | 0.11 | 0.13 | 0.11 | 86 | 1018.8 |
| 20260905231535 | 59 | 270 | 0.0 | 3.0 | 0.04 | 0.06 | 0.00 | 79 | 1019.0 |
| 20260905224535 | 62 | 276 | 3.0 | 7.0 | 0.00 | 0.02 | 0.00 | 78 | 1018.7 |
| 20260905221606 | 59 | 200 | 2.0 | 5.0 | 0.00 | 0.02 | 0.00 | 79 | 1018.9 |
| 20260905220032 | 60 | 241 | 2.0 | 5.0 | 0.00 | 0.02 | 0.00 | 79 | 1018.7 |
| 20260905213033 | 60 | 304 | 2.0 | 7.0 | 0.00 | 0.02 | 0.00 | 80 | 1018.7 |
| 20260905211534 | 59 | 279 | 1.0 | 4.0 | 0.00 | 0.02 | 0.00 | 81 | 1018.9 |
| 20260905204534 | 59 | 315 | 1.0 | 5.0 | 0.00 | 0.02 | 0.00 | 81 | 1019.1 |
| 20260905203143 | 59 | 330 | 2.0 | 6.0 | 0.00 | 0.02 | 0.00 | 82 | 1019.1 |
| 20260905201533 | 57 | 349 | 1.0 | 4.0 | 0.00 | 0.02 | 0.00 | 83 | 1019.1 |
| 20260905194608 | 57 | 260 | 1.0 | 5.0 | 0.00 | 0.02 | 0.00 | 85 | 1019.3 |
| 20260905193030 | 56 | 316 | 2.0 | 5.0 | 0.00 | 0.02 | 0.00 | 85 | 1019.4 |